Location: ????????
(55.7667°N, 37.4833°E)
Time: 07:01:29
(UTC+00:00)

Cosmos 2278 - Pass Details

Date: 19 May 2025
Orbit: 839 x 850 km, 71.1° (Epoch: 16 June)

Event Time Altitude Azimuth Distance (km) Brightness Sun altitude
Rises 19:39:34 0° 325° (NW) 3,408 8.8 -11.0°
Reaches altitude 10° 19:42:03 10° 329° (NNW) 2,469 7.7 -11.1°
Maximum altitude 19:47:41 63° 50° (NE) 938 4.0 -11.4°
Enters shadow 19:52:50 12° 131° (SE) 2,293 5.4 -11.7°
